Orbital Elements at Epoch 2459000.5 (2020-May-31.0) TDB
Reference: JPL 16 (heliocentric ecliptic J2000)
Element | Value | Uncertainty (1-sigma) | Units |
e | .07203570241289098 | 5.0301e-08 | |
a | 3.096272702673573 | 2.3366e-08 | au |
q | 2.873230523674622 | 1.5883e-07 | au |
i | 6.5951729602679 | 6.0496e-06 | deg |
node | 36.22133967567917 | 4.4112e-05 | deg |
peri | 4.225152529879084 | 6.033e-05 | deg |
M | 344.2491285889408 | 3.9209e-05 | deg |
tp | 2459087.568150246965 (2020-Aug-26.06815025) | 0.00021664 | TDB |
period | 1990.0190453526 5.45 | 2.2526e-05 6.167e-08 | d yr |
n | .1809027912776652 | 2.0477e-09 | deg/d |
Q | 3.319314881672525 | 2.5049e-08 | au |
|
| | Orbit Determination Parameters
Additional Information
|